Weather History for KSGS - July, 2013

Change the Weather History Date:

Saturday, July 27, 2013

  Actual Average (KMSP) Record (KMSP)
Temperature  
Mean Temperature 59 °F 74 °F  
Max Temperature 63 °F 83 °F 104 °F (1931)
Min Temperature 55 °F 64 °F 49 °F (1971)
Degree Days  
Heating Degree Days 6 0  
Month to date heating degree days 0  
Since 1 June heating degree days 44  
Since 1 July heating degree days 0  
Cooling Degree Days 0 9  
Month to date cooling degree days 241  
Year to date cooling degree days 441  
Since 1 June cooling degree days 399  
Growing Degree Days 9 (Base 50)    
Moisture  
Dew Point 47 °F    
Average Humidity 66    
Maximum Humidity 78    
Minimum Humidity 48    
Precipitation  
Precipitation 0.02 in 0.13 in 6.35 in (1892)
Month to date precipitation 3.49  
Year to date precipitation 17.32  
Snow  
Snow 0.00 in 0.00 in 0.00 in ()
Month to date snowfall 0.0  
Since 1 June snowfall 0.0  
Since 1 July snowfall 0.0  
Snow Depth -    
Sea Level Pressure  
Sea Level Pressure 30.01 in    
Wind  
Wind Speed 9 mph (NNW)    
Max Wind Speed 21 mph    
Max Gust Speed 30 mph    
Visibility 10 miles    
Events Rain    
T = Trace of Precipitation, MM = Missing Value Source: NWS Daily Summary

Daily Weather History Graph

Daily Weather History Graph

Search for Another Location

Airport or City:

Trip Planner

Search our weather history database for the weather conditions in past years. The results will help you decide how hot, cold, wet, or windy it might be!

Date:

Astronomy

Jul. 27, 2013 Rise Set
Actual Time 5:52 AM CDT 8:43 PM CDT
Civil Twilight 5:18 AM CDT 9:18 PM CDT
Nautical Twilight 4:34 AM CDT 10:01 PM CDT
Astronomical Twilight 3:43 AM CDT 10:52 PM CDT
Moon 11:12 PM CDT (7/27) 11:51 AM CDT (7/27)
Length of Visible Light 15h 59m
Length of Day
14h 51m
Waning Gibbous, 70% of the Moon is Illuminated
Jul 27
Waning Gibbous
Jul 29
Last Quarter
Aug 6
New
Aug 14
First Quarter
Aug 20
Full

Hourly Weather History & Observations

Time (CDT) Temp. Dew Point Humidity Pressure Visibility Wind Dir Wind Speed Gust Speed Precip Events Conditions
12:13 AM 57.6 °F 44.6 °F 62% 30.08 in 10.0 mi North 10.4 mph 16.1 mph N/A   Clear
12:33 AM 56.8 °F 44.8 °F 64% 30.08 in 10.0 mi North 6.9 mph 16.1 mph N/A   Clear
12:53 AM 56.5 °F 45.0 °F 65% 30.08 in 10.0 mi North 6.9 mph - N/A   Scattered Clouds
1:13 AM 56.7 °F 45.0 °F 65% 30.08 in 10.0 mi North 8.1 mph - N/A   Overcast
1:33 AM 56.7 °F 44.6 °F 64% 30.07 in 10.0 mi North 8.1 mph - N/A   Overcast
1:53 AM 56.5 °F 45.0 °F 65% 30.08 in 10.0 mi North 5.8 mph - N/A   Overcast
2:13 AM 56.3 °F 45.0 °F 66% 30.07 in 10.0 mi North 6.9 mph - N/A   Overcast
2:33 AM 56.5 °F 45.5 °F 67% 30.07 in 10.0 mi North 4.6 mph - N/A   Overcast
2:53 AM 56.7 °F 45.7 °F 67% 30.07 in 10.0 mi North 4.6 mph - N/A   Overcast
3:13 AM 56.7 °F 45.7 °F 67% 30.06 in 10.0 mi NNW 9.2 mph - N/A   Overcast
3:33 AM 56.8 °F 45.9 °F 67% 30.06 in 10.0 mi North 6.9 mph - N/A   Overcast
3:53 AM 56.7 °F 45.9 °F 67% 30.06 in 10.0 mi North 9.2 mph - N/A   Overcast
4:13 AM 56.7 °F 46.2 °F 68% 30.06 in 10.0 mi North 8.1 mph - N/A   Overcast
4:33 AM 56.3 °F 46.0 °F 68% 30.06 in 10.0 mi NNW 5.8 mph - N/A   Overcast
4:53 AM 56.5 °F 46.4 °F 69% 30.06 in 10.0 mi NNW 4.6 mph - N/A   Overcast
5:13 AM 56.3 °F 46.2 °F 69% 30.06 in 10.0 mi NNW 6.9 mph - N/A   Overcast
5:33 AM 55.8 °F 45.9 °F 69% 30.06 in 10.0 mi NNW 8.1 mph - N/A   Overcast
5:53 AM 55.8 °F 46.0 °F 70% 30.06 in 10.0 mi NNW 8.1 mph - N/A   Overcast
6:13 AM 55.9 °F 46.2 °F 70% 30.07 in 10.0 mi NW 10.4 mph - N/A   Overcast
6:33 AM 55.9 °F 46.4 °F 70% 30.06 in 10.0 mi NNW 6.9 mph - N/A   Overcast
6:53 AM 55.8 °F 46.9 °F 72% 30.06 in 10.0 mi NW 6.9 mph - N/A   Overcast
7:13 AM 55.9 °F 47.1 °F 72% 30.05 in 10.0 mi WNW 9.2 mph - N/A   Overcast
7:33 AM 56.3 °F 46.4 °F 69% 30.05 in 10.0 mi WNW 5.8 mph - N/A   Scattered Clouds
7:53 AM 56.8 °F 46.4 °F 68% 30.06 in 10.0 mi NNW 10.4 mph - N/A   Scattered Clouds
8:13 AM 57.2 °F 46.4 °F 67% 30.06 in 10.0 mi NW 8.1 mph - N/A   Overcast
8:33 AM 58.6 °F 45.9 °F 63% 30.05 in 10.0 mi NW 13.8 mph 17.3 mph N/A   Scattered Clouds
8:53 AM 59.9 °F 45.7 °F 59% 30.04 in 10.0 mi NW 15.0 mph 19.6 mph N/A   Clear
9:13 AM 61.0 °F 45.9 °F 58% 30.03 in 10.0 mi NW 11.5 mph - N/A   Scattered Clouds
9:33 AM 61.2 °F 45.5 °F 56% 30.03 in 10.0 mi NW 16.1 mph 21.9 mph N/A   Scattered Clouds
9:53 AM 62.4 °F 45.0 °F 53% 30.02 in 10.0 mi NW 15.0 mph - N/A   Scattered Clouds
10:13 AM 63.0 °F 44.4 °F 51% 30.00 in 10.0 mi NW 10.4 mph 18.4 mph N/A   Clear
10:33 AM 63.5 °F 43.7 °F 48% 30.00 in 10.0 mi NW 13.8 mph 21.9 mph N/A   Scattered Clouds
10:53 AM 63.5 °F 43.9 °F 49% 29.99 in 10.0 mi NW 20.7 mph 25.3 mph N/A   Overcast
11:13 AM 63.5 °F 44.4 °F 50% 29.99 in 10.0 mi NW 18.4 mph 26.5 mph N/A   Overcast
11:33 AM 59.2 °F 49.6 °F 71% 30.01 in 5.0 mi NNW 20.7 mph 28.8 mph 0.01 in Rain Light Rain
11:53 AM 58.1 °F 48.2 °F 70% 30.01 in 7.0 mi NNW 18.4 mph 29.9 mph 0.01 in Rain Light Rain
12:13 PM 58.1 °F 47.8 °F 69% 30.01 in 10.0 mi NNW 17.3 mph 25.3 mph N/A   Light Drizzle
12:33 PM 58.6 °F 47.7 °F 67% 30.01 in 10.0 mi NNW 20.7 mph 27.6 mph N/A   Light Drizzle
12:53 PM 58.1 °F 47.5 °F 68% 30.01 in 10.0 mi North 17.3 mph 24.2 mph N/A Rain Light Rain
1:13 PM 57.6 °F 47.8 °F 70% 30.01 in 10.0 mi NNW 15.0 mph 21.9 mph N/A Rain Light Rain
1:33 PM 57.2 °F 48.0 °F 71% 30.01 in 10.0 mi NNW 11.5 mph 17.3 mph N/A Rain Light Rain
1:53 PM 57.4 °F 48.2 °F 71% 30.00 in 10.0 mi NNW 11.5 mph - 0.01 in Rain Light Rain
2:13 PM 59.4 °F 48.7 °F 68% 30.00 in 10.0 mi WNW 10.4 mph - N/A   Light Drizzle
2:33 PM 61.0 °F 48.7 °F 64% 29.99 in 10.0 mi NW 11.5 mph 19.6 mph N/A   Mostly Cloudy
2:53 PM 60.8 °F 48.6 °F 64% 29.99 in 10.0 mi NW 15.0 mph 20.7 mph N/A   Light Drizzle
3:13 PM 61.2 °F 48.6 °F 63% 29.99 in 10.0 mi NNW 12.7 mph 21.9 mph N/A   Scattered Clouds
3:33 PM 61.7 °F 47.8 °F 60% 29.98 in 10.0 mi NNW 12.7 mph 20.7 mph N/A   Scattered Clouds
3:53 PM 59.9 °F 48.6 °F 66% 29.98 in 10.0 mi NNW 9.2 mph - N/A   Light Drizzle
4:13 PM 60.6 °F 49.3 °F 66% 29.97 in 10.0 mi NW 9.2 mph - N/A   Mostly Cloudy
4:33 PM 61.0 °F 49.1 °F 65% 29.97 in 10.0 mi NW 6.9 mph 10.4 mph N/A   Scattered Clouds
4:53 PM 62.8 °F 49.8 °F 63% 29.96 in 10.0 mi WNW 6.9 mph - N/A   Scattered Clouds
5:13 PM 62.8 °F 48.9 °F 61% 29.95 in 10.0 mi WNW 6.9 mph - N/A   Mostly Cloudy
5:33 PM 62.4 °F 47.8 °F 59% 29.95 in 10.0 mi WNW 5.8 mph - N/A   Mostly Cloudy
5:53 PM 62.1 °F 48.4 °F 61% 29.94 in 10.0 mi West 4.6 mph - N/A   Overcast
6:13 PM 61.5 °F 51.1 °F 69% 29.95 in 7.0 mi West 8.1 mph - N/A   Drizzle
6:33 PM 60.1 °F 51.4 °F 73% 29.95 in 10.0 mi WNW 5.8 mph - N/A Rain Light Rain
6:53 PM 60.1 °F 51.8 °F 74% 29.94 in 10.0 mi West 6.9 mph - N/A   Overcast
7:13 PM 60.8 °F 52.3 °F 74% 29.94 in 10.0 mi North 5.8 mph - N/A   Mostly Cloudy
7:33 PM 61.0 °F 52.2 °F 73% 29.94 in 10.0 mi North 5.8 mph - N/A   Mostly Cloudy
7:53 PM 60.8 °F 52.0 °F 73% 29.94 in 10.0 mi North 6.9 mph - N/A   Overcast
8:13 PM 60.8 °F 50.5 °F 69% 29.94 in 10.0 mi NNW 6.9 mph 16.1 mph N/A   Overcast
8:33 PM 59.4 °F 50.0 °F 71% 29.95 in 10.0 mi North 16.1 mph 21.9 mph N/A   Light Drizzle
8:53 PM 57.2 °F 49.3 °F 75% 29.95 in 7.0 mi North 15.0 mph 19.6 mph N/A   Light Drizzle
9:13 PM 56.3 °F 49.5 °F 78% 29.95 in 10.0 mi NNW 6.9 mph - N/A   Overcast
9:33 PM 57.4 °F 48.6 °F 72% 29.95 in 10.0 mi North 8.1 mph 18.4 mph N/A   Overcast
9:53 PM 57.7 °F 48.6 °F 71% 29.96 in 10.0 mi NNW 8.1 mph - N/A   Overcast
10:13 PM 57.6 °F 47.5 °F 69% 29.96 in 10.0 mi NNW 10.4 mph 16.1 mph N/A   Overcast
10:33 PM 57.0 °F 46.4 °F 68% 29.96 in 10.0 mi North 12.7 mph 18.4 mph N/A   Scattered Clouds
10:53 PM 56.7 °F 46.4 °F 69% 29.96 in 10.0 mi North 9.2 mph - N/A   Scattered Clouds
11:13 PM 56.5 °F 46.4 °F 69% 29.96 in 10.0 mi NNW 10.4 mph - N/A   Scattered Clouds
11:33 PM 55.6 °F 46.6 °F 72% 29.96 in 10.0 mi NNW 6.9 mph - N/A   Clear
11:53 PM 55.8 °F 46.9 °F 72% 29.97 in 10.0 mi NNW 8.1 mph - N/A   Mostly Cloudy